This is the latest recevied weather packets stored in our database for station/object OK2ILA-10. If no packets are shown the sender has not sent any weather packets the latest 10 day(s).
| Time | Temp. | Humidity | Pressure | Rain* | Wind** | Luminosity | Snow |
|---|---|---|---|---|---|---|---|
| 1787732494 | 16.67° C | 73% | 1021.4 hPa | - | - | - | - |
| 1787731894 | 17.22° C | 72% | 1021.2 hPa | - | - | - | - |
| 1787731298 | 17.22° C | 72% | 1021.2 hPa | - | - | - | - |
| 1787731294 | 17.22° C | 72% | 1021.2 hPa | - | - | - | - |
| 1787730098 | 16.11° C | 76% | 1021 hPa | - | - | - | - |
| 1787730094 | 16.11° C | 76% | 1021 hPa | - | - | - | - |
| 1787729493 | 15.56° C | 76% | 1021 hPa | - | - | - | - |
| 1787728898 | 15.56° C | 77% | 1020.9 hPa | - | - | - | - |
| 1787728893 | 15.56° C | 77% | 1020.9 hPa | - | - | - | - |
| 1787728298 | 15.56° C | 79% | 1020.8 hPa | - | - | - | - |
| 1787728293 | 15.56° C | 79% | 1020.8 hPa | - | - | - | - |
| 1787727693 | 14.44° C | 81% | 1020.7 hPa | - | - | - | - |
| 1787727105 | 14.44° C | 82% | 1020.6 hPa | - | - | - | - |
| 1787727093 | 14.44° C | 82% | 1020.6 hPa | - | - | - | - |
| 1787726492 | 13.89° C | 83% | 1020.5 hPa | - | - | - | - |
| 1787725892 | 13.89° C | 83% | 1020.4 hPa | - | - | - | - |
| 1787725292 | 13.33° C | 84% | 1020.4 hPa | - | - | - | - |
| 1787724692 | 13.33° C | 85% | 1020.5 hPa | - | - | - | - |
| 1787724091 | 12.78° C | 85% | 1020.4 hPa | - | - | - | - |
| 1787723491 | 12.78° C | 85% | 1020.4 hPa | - | - | - | - |
| 1787722890 | 12.78° C | 85% | 1020.4 hPa | - | - | - | - |
| 1787722298 | 12.78° C | 85% | 1020.4 hPa | - | - | - | - |
| 1787722290 | 12.78° C | 85% | 1020.4 hPa | - | - | - | - |
| 1787721694 | 12.78° C | 85% | 1020.3 hPa | - | - | - | - |
| 1787721690 | 12.78° C | 85% | 1020.3 hPa | - | - | - | - |
* Rain since midnight (hover to see other rain measurements)
** Current wind speed in m/s (hover to see current wind gust speed)